Weather History for KFFT - November, 2012

Change the Weather History Date:

Tuesday, November 13, 2012

  Actual Average Record
Temperature  
Mean Temperature 35 °F 47 °F  
Max Temperature 46 °F 58 °F 76 °F (1949)
Min Temperature 23 °F 37 °F 16 °F (1976)
Degree Days  
Heating Degree Days 30 18  
Month to date heating degree days 271 204  
Since 1 July heating degree days 672 545  
Cooling Degree Days 0 0  
Month to date cooling degree days 0 0  
Year to date cooling degree days 1310 1154  
Moisture  
Dew Point 25 °F    
Average Humidity 68    
Maximum Humidity 96    
Minimum Humidity 40    
Precipitation  
Precipitation 0.00 in 0.11 in 1.38 in (1935)
Month to date precipitation 1.02 1.49  
Year to date precipitation 34.45 39.37  
Sea Level Pressure  
Sea Level Pressure 30.48 in    
Wind  
Wind Speed 2 mph (NNW)    
Max Wind Speed 9 mph    
Max Gust Speed 12 mph    
Visibility 10 miles    
Events      
T = Trace of Precipitation, MM = Missing Value Source: NWS Daily Summary

Daily Weather History Graph

Daily Weather History Graph

Search for Another Location

Airport or City:

Trip Planner

Search our weather history database for the weather conditions in past years. The results will help you decide how hot, cold, wet, or windy it might be!

Date:

Astronomy

Nov. 13, 2012 Rise Set
Actual Time 7:19 AM EST 5:28 PM EST
Civil Twilight 6:50 AM EST 5:56 PM EST
Nautical Twilight 6:19 AM EST 6:28 PM EST
Astronomical Twilight 5:47 AM EST 6:59 PM EST
Moon 6:56 AM EST (11/13) 5:21 PM EST (11/13)
Length of Visible Light 11h 05m
Length of Day
10h 09m
Waning Crescent, 0% of the Moon is Illuminated
Nov 13
Waning Crescent
Nov 13
New
Nov 20
First Quarter
Nov 28
Full
Dec 6
Last Quarter

Hourly Weather History & Observations

Time (EST) Temp. Windchill Dew Point Humidity Pressure Visibility Wind Dir Wind Speed Gust Speed Precip Events Conditions
12:53 AM 28.0 °F - 25.0 °F 88% 30.44 in 10.0 mi Calm Calm - N/A   Clear
1:53 AM 27.0 °F - 25.0 °F 92% 30.44 in 10.0 mi Calm Calm - N/A   Clear
2:53 AM 27.0 °F - 24.1 °F 89% 30.45 in 10.0 mi Calm Calm - N/A   Clear
3:53 AM 26.1 °F - 24.1 °F 92% 30.45 in 10.0 mi Calm Calm - N/A   Clear
4:53 AM 25.0 °F - 23.0 °F 92% 30.45 in 10.0 mi Calm Calm - N/A   Clear
5:53 AM 24.1 °F - 21.9 °F 91% 30.47 in 9.0 mi Calm Calm - N/A   Clear
6:53 AM 23.0 °F - 21.0 °F 92% 30.49 in 10.0 mi Calm Calm - N/A   Clear
7:53 AM 24.1 °F - 21.9 °F 91% 30.51 in 10.0 mi Calm Calm - N/A   Clear
8:53 AM 30.0 °F - 27.0 °F 88% 30.52 in 10.0 mi Calm Calm - N/A   Clear
9:53 AM 36.0 °F 33.3 °F 28.9 °F 76% 30.52 in 10.0 mi NNW 3.5 mph - N/A   Clear
10:53 AM 39.9 °F - 28.9 °F 65% 30.52 in 10.0 mi Calm Calm - N/A   Clear
11:53 AM 42.1 °F 37.7 °F 25.0 °F 51% 30.50 in 10.0 mi WNW 6.9 mph - N/A   Clear
12:53 PM 43.0 °F 40.3 °F 24.1 °F 47% 30.48 in 10.0 mi NW 4.6 mph - N/A   Clear
1:53 PM 45.0 °F 43.5 °F 25.0 °F 46% 30.46 in 10.0 mi Variable 3.5 mph - N/A   Clear
2:53 PM 45.0 °F 43.5 °F 23.0 °F 42% 30.45 in 10.0 mi WNW 3.5 mph - N/A   Clear
3:53 PM 45.0 °F - 21.9 °F 40% 30.45 in 10.0 mi Calm Calm - N/A   Clear
4:53 PM 43.0 °F 41.3 °F 23.0 °F 45% 30.46 in 10.0 mi NW 3.5 mph - N/A   Clear
5:53 PM 39.0 °F - 26.1 °F 60% 30.46 in 10.0 mi Calm Calm - N/A   Clear
6:53 PM 33.1 °F - 26.1 °F 75% 30.48 in 10.0 mi Calm Calm - N/A   Clear
7:53 PM 30.9 °F - 25.0 °F 79% 30.50 in 10.0 mi Calm Calm - N/A   Clear
8:53 PM 30.0 °F 26.5 °F 25.0 °F 82% 30.50 in 10.0 mi NNW 3.5 mph - N/A   Clear
9:53 PM 28.0 °F 24.2 °F 25.0 °F 88% 30.51 in 10.0 mi NNW 3.5 mph - N/A   Clear
10:53 PM 33.1 °F 30.0 °F 25.0 °F 72% 30.50 in 10.0 mi NNE 3.5 mph - N/A   Clear
11:53 PM 32.0 °F 28.7 °F 24.1 °F 73% 30.49 in 10.0 mi NNE 3.5 mph - N/A   Clear